| time (UTC) | temp C | wind direction | speed KPH | gust KPH | rain 1hr cm | rain 24hr cm | rain mn cm | humidity % | barometer mb |
| 20260504130516 | 22 | 0.0 | 4.8 | 0.00 | 0.00 | 0.00 | 54 | 1016.9 | |
| 20260504110536 | 21 | 0.0 | 1.6 | 0.00 | 0.00 | 0.00 | 56 | 1017.8 | |
| 20260504100536 | 21 | 0.0 | 3.2 | 0.00 | 0.00 | 0.00 | 55 | 1017.9 | |
| 20260504081516 | 19 | 0.0 | 3.2 | 0.00 | 0.00 | 0.00 | 59 | 1018.6 | |
| 20260504080516 | 18 | 90 | 1.6 | 6.4 | 0.00 | 0.00 | 0.00 | 59 | 1018.7 |
| 20260504050515 | 10 | 0.0 | 0.0 | 0.00 | 0.00 | 0.00 | 83 | 1018.2 | |
| 20260504045516 | 9 | 0.0 | 0.0 | 0.00 | 0.00 | 0.00 | 84 | 1018.1 | |
| 20260504044515 | 9 | 0.0 | 0.0 | 0.00 | 0.00 | 0.00 | 83 | 1018.1 | |
| 20260504043516 | 9 | 0.0 | 0.0 | 0.00 | 0.00 | 0.00 | 83 | 1018.1 | |
| 20260504042515 | 9 | 0.0 | 0.0 | 0.00 | 0.00 | 0.00 | 83 | 1018.1 | |
| 20260504041515 | 9 | 0.0 | 0.0 | 0.00 | 0.00 | 0.00 | 82 | 1018.0 | |
| 20260504040535 | 10 | 0.0 | 0.0 | 0.00 | 0.00 | 0.00 | 82 | 1018.2 | |
| 20260504035556 | 10 | 0.0 | 0.0 | 0.00 | 0.00 | 0.00 | 82 | 1018.3 | |
| 20260504034535 | 10 | 0.0 | 0.0 | 0.00 | 0.00 | 0.00 | 82 | 1018.4 | |
| 20260504033517 | 10 | 0.0 | 0.0 | 0.00 | 0.00 | 0.00 | 82 | 1018.6 | |
| 20260504032515 | 10 | 0.0 | 0.0 | 0.00 | 0.00 | 0.00 | 82 | 1018.5 | |
| 20260504031516 | 10 | 0.0 | 0.0 | 0.00 | 0.00 | 0.00 | 81 | 1018.4 | |
| 20260504030556 | 10 | 0.0 | 0.0 | 0.00 | 0.00 | 0.00 | 81 | 1018.5 | |
| 20260504025515 | 10 | 0.0 | 0.0 | 0.00 | 0.00 | 0.00 | 81 | 1018.6 | |
| 20260504024515 | 10 | 0.0 | 0.0 | 0.00 | 0.00 | 0.00 | 80 | 1018.6 | |
| 20260504023516 | 10 | 0.0 | 0.0 | 0.00 | 0.00 | 0.00 | 80 | 1018.6 | |
| 20260504022515 | 11 | 0.0 | 0.0 | 0.00 | 0.00 | 0.00 | 80 | 1018.6 | |
| 20260504021515 | 11 | 0.0 | 0.0 | 0.00 | 0.00 | 0.00 | 79 | 1018.6 | |
| 20260504020515 | 11 | 0.0 | 0.0 | 0.00 | 0.00 | 0.00 | 78 | 1018.6 | |
| 20260504015515 | 11 | 0.0 | 0.0 | 0.00 | 0.00 | 0.00 | 78 | 1018.6 | |
| 20260504014515 | 11 | 0.0 | 0.0 | 0.00 | 0.00 | 0.00 | 77 | 1018.6 | |
| 20260504013515 | 12 | 0.0 | 0.0 | 0.00 | 0.00 | 0.00 | 77 | 1018.6 | |
| 20260504012516 | 12 | 0.0 | 0.0 | 0.00 | 0.00 | 0.00 | 76 | 1018.7 | |
| 20260504011557 | 12 | 0.0 | 0.0 | 0.00 | 0.00 | 0.00 | 75 | 1018.7 | |
| 20260504010517 | 12 | 0.0 | 0.0 | 0.00 | 0.00 | 0.00 | 75 | 1018.6 | |
| 20260504005518 | 12 | 0.0 | 0.0 | 0.00 | 0.00 | 0.00 | 75 | 1018.5 | |
| 20260504004517 | 13 | 0.0 | 0.0 | 0.00 | 0.00 | 0.00 | 76 | 1018.5 | |
| 20260504003517 | 13 | 0.0 | 0.0 | 0.00 | 0.00 | 0.00 | 76 | 1018.6 | |
| 20260504002517 | 13 | 0.0 | 0.0 | 0.00 | 0.00 | 0.00 | 75 | 1018.7 | |
| 20260504001538 | 13 | 0.0 | 0.0 | 0.00 | 0.00 | 0.00 | 75 | 1018.8 | |
| 20260504000517 | 13 | 0.0 | 0.0 | 0.00 | 0.00 | 0.00 | 74 | 1018.9 | |
| 20260503235517 | 13 | 0.0 | 0.0 | 0.00 | 0.00 | 0.00 | 74 | 1018.9 | |
| 20260503234517 | 13 | 0.0 | 0.0 | 0.00 | 0.00 | 0.00 | 73 | 1019.1 | |
| 20260503233517 | 13 | 0.0 | 0.0 | 0.00 | 0.00 | 0.00 | 72 | 1018.9 | |
| 20260503232517 | 13 | 0.0 | 0.0 | 0.00 | 0.00 | 0.00 | 71 | 1019.0 | |
| 20260503231517 | 14 | 0.0 | 0.0 | 0.00 | 0.00 | 0.00 | 70 | 1019.1 | |
| 20260503230517 | 14 | 0.0 | 0.0 | 0.00 | 0.00 | 0.00 | 71 | 1019.4 | |
| 20260503225517 | 14 | 0.0 | 0.0 | 0.00 | 0.00 | 0.00 | 71 | 1019.3 | |
| 20260503224517 | 14 | 0.0 | 1.6 | 0.00 | 0.00 | 0.00 | 70 | 1019.4 | |
| 20260503223517 | 14 | 0.0 | 0.0 | 0.00 | 0.00 | 0.00 | 70 | 1019.3 | |
| 20260503222517 | 14 | 0.0 | 3.2 | 0.00 | 0.00 | 0.00 | 69 | 1019.2 | |
| 20260503221518 | 14 | 0.0 | 1.6 | 0.00 | 0.00 | 0.00 | 68 | 1019.2 | |
| 20260503220517 | 15 | 0.0 | 1.6 | 0.00 | 0.00 | 0.00 | 68 | 1019.1 | |
| 20260503215517 | 15 | 0.0 | 3.2 | 0.00 | 0.00 | 0.00 | 68 | 1019.1 | |
| 20260503214517 | 15 | 0.0 | 3.2 | 0.00 | 0.00 | 0.00 | 67 | 1019.2 | |
| 20260503213517 | 15 | 68 | 1.6 | 4.8 | 0.00 | 0.00 | 0.00 | 66 | 1019.2 |
| 20260503212517 | 15 | 0.0 | 0.0 | 0.00 | 0.00 | 0.00 | 65 | 1019.0 | |
| 20260503211518 | 15 | 0.0 | 0.0 | 0.00 | 0.00 | 0.00 | 63 | 1019.0 | |
| 20260503210517 | 15 | 0.0 | 0.0 | 0.00 | 0.00 | 0.00 | 62 | 1018.8 | |
| 20260503205517 | 15 | 0.0 | 0.0 | 0.00 | 0.00 | 0.00 | 61 | 1018.8 | |
| 20260503204517 | 15 | 0.0 | 0.0 | 0.00 | 0.00 | 0.00 | 59 | 1018.7 | |
| 20260503203517 | 15 | 0.0 | 0.0 | 0.00 | 0.00 | 0.00 | 59 | 1018.6 | |
| 20260503202517 | 15 | 0.0 | 0.0 | 0.00 | 0.00 | 0.00 | 59 | 1018.6 | |
| 20260503201517 | 15 | 0.0 | 0.0 | 0.00 | 0.00 | 0.00 | 57 | 1018.6 | |
| 20260503200517 | 15 | 0.0 | 0.0 | 0.00 | 0.00 | 0.00 | 57 | 1018.6 | |
| 20260503195518 | 15 | 0.0 | 1.6 | 0.00 | 0.00 | 0.00 | 58 | 1018.4 | |
| 20260503194517 | 15 | 0.0 | 0.0 | 0.00 | 0.00 | 0.00 | 58 | 1018.3 | |
| 20260503193517 | 16 | 0.0 | 0.0 | 0.00 | 0.00 | 0.00 | 57 | 1018.1 | |
| 20260503192517 | 16 | 0.0 | 0.0 | 0.00 | 0.00 | 0.00 | 56 | 1018.0 | |
| 20260503191638 | 16 | 0.0 | 1.6 | 0.00 | 0.00 | 0.00 | 55 | 1017.9 | |
| 20260503190517 | 16 | 0.0 | 1.6 | 0.00 | 0.00 | 0.00 | 55 | 1017.5 | |
| 20260503185517 | 16 | 0.0 | 1.6 | 0.00 | 0.00 | 0.00 | 53 | 1017.8 | |
| 20260503184517 | 17 | 0.0 | 1.6 | 0.00 | 0.00 | 0.00 | 53 | 1017.7 | |
| 20260503183516 | 17 | 0.0 | 1.6 | 0.00 | 0.00 | 0.00 | 53 | 1017.6 | |
| 20260503182517 | 17 | 0.0 | 1.6 | 0.00 | 0.00 | 0.00 | 51 | 1017.2 | |
| 20260503181536 | 17 | 0.0 | 3.2 | 0.00 | 0.00 | 0.00 | 52 | 1017.3 | |
| 20260503180516 | 17 | 0.0 | 3.2 | 0.00 | 0.00 | 0.00 | 53 | 1017.2 | |
| 20260503175517 | 17 | 270 | 1.6 | 4.8 | 0.00 | 0.00 | 0.00 | 52 | 1017.0 |
| 20260503174517 | 17 | 90 | 1.6 | 4.8 | 0.00 | 0.00 | 0.00 | 53 | 1017.0 |
| 20260503173516 | 18 | 180 | 1.6 | 4.8 | 0.00 | 0.00 | 0.00 | 55 | 1017.0 |
| 20260503172517 | 17 | 225 | 1.6 | 4.8 | 0.00 | 0.00 | 0.00 | 57 | 1016.7 |
| 20260503171537 | 17 | 0.0 | 0.0 | 0.00 | 0.00 | 0.00 | 78 | 1016.5 | |
| 20260503170517 | 18 | 0.0 | 0.0 | 0.00 | 0.00 | 0.00 | 78 | 1016.4 | |
| 20260503150517 | 23 | 0.0 | 0.0 | 0.00 | 0.00 | 0.00 | 43 | 1016.3 |